GW7375 Weather Reports


time (UTC)temp
F
wind
direction
speed
knots
gust
knots
rain 1hr
in
rain 24hr
in
rain mn
in
humidity
%
barometer
mb
20260503222542 73 261 6.1 13.9 0.00 0.00 0.00 28 1003.4
20260503222045 73 298 6.1 13.9 0.00 0.00 0.00 30 1003.5
20260503221557 73 273 5.2 11.3 0.00 0.00 0.00 30 1003.3
20260503221043 73 293 5.2 11.3 0.00 0.00 0.00 28 1003.3
20260503220543 74 250 4.3 10.4 0.00 0.00 0.00 29 1003.4
20260503215543 73 290 4.3 14.8 0.00 0.00 0.00 30 1003.5
20260503215042 73 298 6.1 14.8 0.00 0.00 0.00 29 1003.6
20260503214554 73 274 6.1 11.3 0.00 0.00 0.00 31 1003.5
20260503214042 73 269 5.2 13.9 0.00 0.00 0.00 31 1003.5
20260503213545 73 246 7.0 13.9 0.00 0.00 0.00 31 1003.5
20260503213049 73 234 6.1 13.9 0.00 0.00 0.00 32 1003.5
20260503212542 73 286 3.5 13.0 0.00 0.00 0.00 32 1003.6
20260503212042 73 355 6.1 13.0 0.00 0.00 0.00 31 1003.7
20260503211557 73 293 5.2 15.6 0.00 0.00 0.00 31 1003.8
20260503211042 73 240 7.8 15.6 0.00 0.00 0.00 32 1003.8
20260503210542 73 289 5.2 15.6 0.00 0.00 0.00 32 1003.8
20260503210055 73 279 5.2 15.6 0.00 0.00 0.00 31 1003.8
20260503205543 73 295 6.1 14.8 0.00 0.00 0.00 29 1003.7
20260503205041 73 290 7.8 14.8 0.00 0.00 0.00 30 1003.8
20260503204601 73 267 2.6 13.0 0.00 0.00 0.00 33 1003.9
20260503204044 73 264 3.5 13.0 0.00 0.00 0.00 35 1003.9
20260503203542 73 284 6.1 13.0 0.00 0.00 0.00 31 1003.9
20260503203059 73 252 5.2 16.5 0.00 0.00 0.00 33 1003.9
20260503202542 72 263 5.2 16.5 0.00 0.00 0.00 32 1004.0
20260503202041 72 250 6.1 13.9 0.00 0.00 0.00 32 1004.1
20260503201544 72 246 5.2 13.0 0.00 0.00 0.00 34 1004.2
20260503201042 72 279 7.0 13.0 0.00 0.00 0.00 31 1004.1
20260503200543 73 246 4.3 12.2 0.00 0.00 0.00 33 1004.2
20260503200047 73 246 7.0 12.2 0.00 0.00 0.00 33 1004.2
20260503195541 73 269 4.3 14.8 0.00 0.00 0.00 35 1004.1
20260503195042 73 267 7.0 14.8 0.00 0.00 0.00 33 1004.1
20260503194606 73 272 2.6 7.8 0.00 0.00 0.00 36 1004.1
20260503194043 74 289 3.5 11.3 0.00 0.00 0.00 35 1004.1
20260503193543 74 232 3.5 11.3 0.00 0.00 0.00 36 1004.2
20260503193048 73 285 1.7 8.7 0.00 0.00 0.00 38 1004.2
20260503192542 74 234 4.3 8.7 0.00 0.00 0.00 35 1004.3
20260503192042 74 194 2.6 6.1 0.00 0.00 0.00 34 1004.3
20260503191551 74 182 2.6 6.1 0.00 0.00 0.00 37 1004.4
20260503191042 74 263 1.7 6.1 0.00 0.00 0.00 34 1004.4
20260503190542 73 209 1.7 6.1 0.00 0.00 0.00 37 1004.5
20260503190058 73 267 0.9 6.1 0.00 0.00 0.00 38 1004.5
20260503185542 73 259 1.7 6.1 0.00 0.00 0.00 43 1004.6
20260503185042 72 207 2.6 8.7 0.00 0.00 0.00 40 1004.7
20260503184546 71 194 0.9 8.7 0.00 0.00 0.00 37 1004.7
20260503184040 71 248 1.7 7.0 0.00 0.00 0.00 39 1004.7
20260503183542 71 234 2.6 7.0 0.00 0.00 0.00 37 1004.7
20260503183103 71 250 1.7 6.1 0.00 0.00 0.00 40 1004.8
20260503182540 70 216 2.6 6.1 0.00 0.00 0.00 40 1004.8
20260503182042 70 244 0.9 6.1 0.00 0.00 0.00 39 1004.8
20260503181550 70 216 1.7 9.6 0.00 0.00 0.00 41 1005.0
20260503181044 69 329 2.6 9.6 0.00 0.00 0.00 39 1005.0
20260503180543 69 256 2.6 7.8 0.00 0.00 0.00 38 1005.1
20260503180059 69 249 3.5 7.8 0.00 0.00 0.00 38 1005.1
20260503175540 69 276 3.5 7.0 0.00 0.00 0.00 38 1005.2
20260503175042 69 254 3.5 7.0 0.00 0.00 0.00 42 1005.2
20260503174546 69 183 2.6 6.1 0.00 0.00 0.00 39 1005.2
20260503174042 68 215 0.9 6.1 0.00 0.00 0.00 40 1005.2
20260503173542 68 328 2.6 5.2 0.00 0.00 0.00 41 1005.2
20260503173120 68 230 2.6 9.6 0.00 0.00 0.00 40 1005.2
20260503172541 68 182 2.6 9.6 0.00 0.00 0.00 40 1005.4
20260503172041 67 233 1.7 7.0 0.00 0.00 0.00 41 1005.5
20260503171546 67 154 1.7 7.0 0.00 0.00 0.00 41 1005.5
20260503171045 67 181 2.6 9.6 0.00 0.00 0.00 42 1005.5
20260503170542 66 200 2.6 9.6 0.00 0.00 0.00 41 1005.5
20260503150542 61 260 5.2 13.0 0.00 0.00 0.00 45 1006.1
20260503131042 57 198 2.6 10.4 0.00 0.00 0.00 56 1006.9
20260503130540 57 172 1.7 7.8 0.00 0.00 0.00 58 1006.9
20260503130104 57 185 1.7 8.7 0.00 0.00 0.00 58 1007.0
20260503110543 54 133 0.9 4.3 0.00 0.00 0.00 56 1007.0
20260503081556 54 0 0.0 1.7 0.00 0.00 0.00 48 1009.4
20260503081043 54 0 0.0 3.5 0.00 0.00 0.00 48 1009.5
20260503080542 54 0 0.0 3.5 0.00 0.00 0.00 48 1009.6
20260503072541 54 0 0.0 1.7 0.00 0.00 0.00 49 1009.8
20260503072041 54 0 0.0 1.7 0.00 0.00 0.00 49 1009.9
20260503071553 54 0 0.0 3.5 0.00 0.00 0.00 48 1010.0
20260503071041 54 0 0.0 3.5 0.00 0.00 0.00 47 1010.0
20260503070541 54 161 0.0 2.6 0.00 0.00 0.00 48 1010.0
20260503055041 54 0 0.0 2.6 0.00 0.00 0.00 50 1010.6
20260503054550 54 51 0.0 3.5 0.00 0.00 0.00 50 1010.7
20260503054040 54 0 0.0 3.5 0.00 0.00 0.00 50 1010.7
20260503053543 53 0 0.0 2.6 0.00 0.00 0.00 50 1010.7
20260503053055 53 0 0.0 1.7 0.00 0.00 0.00 51 1010.7
20260503052543 53 0 0.0 1.7 0.00 0.00 0.00 51 1010.8
20260503052042 53 0 0.0 1.7 0.00 0.00 0.00 52 1010.8
20260503051553 53 0 0.0 1.7 0.00 0.00 0.00 52 1010.8
20260503051041 53 132 0.0 1.7 0.00 0.00 0.00 53 1010.8
20260503050541 53 0 0.0 1.7 0.00 0.00 0.00 52 1010.9
20260503050048 53 0 0.0 1.7 0.00 0.00 0.00 53 1010.9
20260503045541 53 0 0.0 1.7 0.00 0.00 0.00 54 1010.9
20260503045042 53 0 0.0 1.7 0.00 0.00 0.00 54 1010.9
20260503044555 53 0 0.0 1.7 0.00 0.00 0.00 55 1011.0
20260503044039 52 0 0.0 2.6 0.00 0.00 0.00 56 1011.0
20260503043542 52 0 0.0 2.6 0.00 0.00 0.00 58 1011.1
20260503043049 51 0 0.0 1.7 0.00 0.00 0.00 60 1011.1
20260503042542 51 0 0.0 1.7 0.00 0.00 0.00 64 1011.1
20260503042044 50 0 0.0 0.9 0.00 0.00 0.00 64 1011.2
20260503041549 50 0 0.0 0.0 0.00 0.00 0.00 67 1011.1
20260503041044 50 0 0.0 0.0 0.00 0.00 0.00 67 1011.2
20260503040542 50 0 0.0 0.0 0.00 0.00 0.00 68 1011.3
20260503040048 50 0 0.0 0.0 0.00 0.00 0.00 66 1011.3
20260503035544 50 0 0.0 0.0 0.00 0.00 0.00 66 1011.4
20260503035045 50 0 0.0 1.7 0.00 0.00 0.00 66 1011.3
20260503034550 50 0 0.0 1.7 0.00 0.00 0.00 67 1011.4
20260503034043 50 0 0.9 1.7 0.00 0.00 0.00 67 1011.5
20260503033544 50 0 0.0 0.0 0.00 0.00 0.00 67 1011.6
20260503033049 51 0 0.0 0.0 0.00 0.00 0.00 67 1011.6
20260503032543 51 0 0.0 0.0 0.00 0.00 0.00 65 1011.6
20260503032043 51 0 0.0 0.0 0.00 0.00 0.00 65 1011.8
20260503031557 51 0 0.0 0.0 0.00 0.00 0.00 64 1011.7
20260503031041 51 0 0.0 0.0 0.00 0.00 0.00 64 1011.9
20260503030543 51 0 0.0 0.0 0.00 0.00 0.00 63 1011.9
20260503030050 51 0 0.0 0.0 0.00 0.00 0.00 63 1011.9
20260503025543 52 0 0.0 0.0 0.00 0.00 0.00 63 1012.0
20260503025043 52 0 0.0 0.0 0.00 0.00 0.00 62 1012.0
20260503024548 52 0 0.0 0.0 0.00 0.00 0.00 62 1012.0
20260503024043 53 0 0.0 0.0 0.00 0.00 0.00 61 1012.0
20260503023543 53 0 0.0 0.0 0.00 0.00 0.00 59 1012.0
20260503023050 53 0 0.0 1.7 0.00 0.00 0.00 58 1012.1
20260503022543 54 0 0.0 1.7 0.00 0.00 0.00 58 1012.1
20260503022043 54 216 0.9 1.7 0.00 0.00 0.00 57 1012.1
20260503021550 55 0 0.0 1.7 0.00 0.00 0.00 56 1012.1
20260503021044 55 0 0.9 1.7 0.00 0.00 0.00 54 1012.1
20260503020543 55 0 0.0 1.7 0.00 0.00 0.00 52 1012.1
20260503020056 56 0 0.0 1.7 0.00 0.00 0.00 52 1012.1
20260503015543 56 0 0.0 0.9 0.00 0.00 0.00 50 1012.0
20260503015042 57 0 0.0 0.9 0.00 0.00 0.00 51 1012.0
20260503014555 57 0 0.0 0.9 0.00 0.00 0.00 48 1012.0
20260503014042 58 0 0.0 0.9 0.00 0.00 0.00 48 1012.0
20260503013543 58 0 0.0 0.9 0.00 0.00 0.00 45 1012.0
20260503013053 59 0 0.0 0.9 0.00 0.00 0.00 45 1012.0
20260503012543 59 0 0.0 0.9 0.00 0.00 0.00 44 1012.0
20260503012059 59 0 0.0 0.0 0.00 0.00 0.00 43 1012.0
20260503011550 60 0 0.0 0.9 0.00 0.00 0.00 42 1012.0
20260503011042 60 0 0.0 0.9 0.00 0.00 0.00 40 1012.1
20260503010544 60 0 0.0 2.6 0.00 0.00 0.00 39 1012.1
20260503010051 60 216 0.0 2.6 0.00 0.00 0.00 38 1012.1
20260503005542 60 229 0.0 2.6 0.00 0.00 0.00 38 1012.1
20260503005043 61 0 0.9 5.2 0.00 0.00 0.00 38 1012.2
20260503004547 61 248 0.9 5.2 0.00 0.00 0.00 37 1012.2
20260503004042 61 256 1.7 4.3 0.00 0.00 0.00 37 1012.1
20260503003543 61 221 1.7 4.3 0.00 0.00 0.00 36 1012.2
20260503003050 61 258 0.9 4.3 0.00 0.00 0.00 37 1012.2
20260503002542 62 215 2.6 4.3 0.00 0.00 0.00 36 1012.3
20260503002042 62 233 1.7 8.7 0.00 0.00 0.00 37 1012.2
20260503001608 62 250 2.6 8.7 0.00 0.00 0.00 36 1012.3
20260503001043 62 263 2.6 7.8 0.00 0.00 0.00 35 1012.4
20260503000543 62 286 3.5 9.6 0.00 0.00 0.00 34 1012.4
20260503000113 62 258 4.3 9.6 0.00 0.00 0.00 34 1012.3
20260502235545 62 313 5.2 9.6 0.00 0.00 0.00 36 1012.4
20260502235043 62 238 4.3 9.6 0.00 0.00 0.00 34 1012.4
20260502234554 62 265 3.5 9.6 0.00 0.00 0.00 35 1012.5
20260502234043 62 212 2.6 7.8 0.00 0.00 0.00 36 1012.5
20260502233543 62 276 3.5 7.0 0.00 0.00 0.00 34 1012.7
20260502233048 63 268 2.6 7.0 0.00 0.00 0.00 33 1012.7
20260502232542 63 195 2.6 7.8 0.00 0.00 0.00 33 1012.7
20260502232042 63 0 3.5 9.6 0.00 0.00 0.00 32 1012.7
20260502231615 64 243 3.5 10.4 0.00 0.00 0.00 32 1012.8
20260502231042 64 262 5.2 10.4 0.00 0.00 0.00 32 1012.8
20260502230542 64 243 4.3 13.0 0.00 0.00 0.00 31 1012.8
20260502230047 64 257 5.2 13.0 0.00 0.00 0.00 31 1012.8
20260502225543 64 238 6.1 13.0 0.00 0.00 0.00 31 1012.9
20260502225042 64 229 5.2 13.9 0.00 0.00 0.00 30 1013.0
20260502224556 64 202 7.0 13.9 0.00 0.00 0.00 31 1013.1
20260502224043 64 232 5.2 13.0 0.00 0.00 0.00 32 1013.2
20260502223543 64 236 3.5 13.0 0.00 0.00 0.00 32 1013.2
20260502223049 64 216 6.1 13.0 0.00 0.00 0.00 32 1013.2